Location: Caltech
(34.1382°N, 118.1253°W)
Time: 12:53:36
(UTC-07:00)

SO-50 - Visible Passes

Search period start: 19 September 2014 00:00
Search period end: 29 September 2014 00:00
Orbit: 607 x 690 km, 64.6° (Epoch: 19 September)

Date Brightness Start Highest point End Pass type
(mag) Time Alt. Az. Time Alt. Az. Time Alt. Az.
22 Sep ? 06:04:25 10° N 06:08:12 22° NE 06:11:59 10° ESE visible
24 Sep ? 05:17:55 10° N 05:21:02 17° NE 05:24:09 10° E visible
25 Sep ? 05:43:36 10° NNW 05:48:07 39° NE 05:52:40 10° SE visible
25 Sep ? 19:55:35 10° S 19:58:59 27° ESE 19:58:59 27° ESE visible
25 Sep ? 21:36:04 10° WSW 21:36:54 14° WSW 21:36:54 14° WSW visible
26 Sep ? 04:31:45 10° NNE 04:33:49 13° NE 04:35:53 10° ENE visible
26 Sep ? 06:10:05 10° NNW 06:14:56 81° WSW 06:19:48 10° SSE visible
26 Sep ? 20:21:27 10° SSW 20:25:53 82° ESE 20:27:38 37° NE visible
27 Sep ? 04:56:50 10° N 05:01:01 28° NE 05:05:12 10° ESE visible
27 Sep ? 19:09:19 10° SSE 19:12:27 19° ESE 19:15:39 10° ENE visible
27 Sep ? 20:48:36 10° WSW 20:52:42 35° NW 20:56:01 15° N visible
28 Sep ? 05:23:05 10° NNW 05:27:55 72° ENE 05:32:47 10° SE visible
28 Sep ? 19:34:34 10° SSW 19:38:54 55° ESE 19:43:22 10° NE visible
28 Sep ? 21:17:13 10° W 21:19:49 15° NW 21:22:27 10° NNW visible
